, MO

(GMT )
Kansas City

Weather History for KMKC - October, 2012

Change the Weather History Date:

Wednesday, October 3, 2012

  Actual Average Record
Temperature  
Mean Temperature 64 °F -  
Max Temperature 78 °F 70 °F 93 °F (2006)
Min Temperature 51 °F 50 °F 43 °F (1999)
Degree Days  
Heating Degree Days 1    
Growing Degree Days 14 (Base 50)    
Moisture  
Dew Point 46 °F    
Average Humidity 57    
Maximum Humidity 88    
Minimum Humidity 28    
Precipitation  
Precipitation 0.00 in - - ()
Sea Level Pressure  
Sea Level Pressure 29.92 in    
Wind  
Wind Speed 3 mph (SSW)    
Max Wind Speed 12 mph    
Max Gust Speed 20 mph    
Visibility 10 miles    
Events      
Averages and records for this station are not official NWS values.
T = Trace of Precipitation, MM = Missing Value Source: NWS Daily Summary

Daily Weather History Graph

Daily Weather History Graph

Search for Another Location

Airport or City:

Astronomy

Oct. 03, 2012 Rise Set
Actual Time 7:16 AM CDT 6:57 PM CDT
Civil Twilight 6:50 AM CDT 7:23 PM CDT
Nautical Twilight 6:19 AM CDT 7:54 PM CDT
Astronomical Twilight 5:47 AM CDT 8:25 PM CDT
Moon 8:51 PM CDT (10/3) 10:38 AM CDT (10/3)
Length of Visible Light 12h 33m
Length of Day
11h 40m
Waning Gibbous, 88% of the Moon is Illuminated
Oct 3
Waning Gibbous
Oct 8
Last Quarter
Oct 15
New
Oct 21
First Quarter
Oct 29
Full

Hourly Weather History & Observations

Time (CDT) Temp. Dew Point Humidity Pressure Visibility Wind Dir Wind Speed Gust Speed Precip Events Conditions
12:54 AM 55.9 °F 48.9 °F 77% 29.90 in 10.0 mi Calm Calm - N/A   Clear
1:54 AM 55.0 °F 48.9 °F 80% 29.91 in 10.0 mi Calm Calm - N/A   Clear
2:54 AM 54.0 °F 48.9 °F 83% 29.91 in 10.0 mi Calm Calm - N/A   Clear
3:54 AM 52.0 °F 48.0 °F 86% 29.91 in 10.0 mi Calm Calm - N/A   Clear
4:54 AM 53.1 °F 48.0 °F 83% 29.92 in 10.0 mi Calm Calm - N/A   Clear
4:57 AM 51.8 °F 48.2 °F 88% 29.93 in 10.0 mi Calm Calm - N/A   Clear
5:54 AM 52.0 °F 48.0 °F 86% 29.93 in 10.0 mi Calm Calm - N/A   Clear
6:54 AM 51.1 °F 46.9 °F 86% 29.94 in 10.0 mi Calm Calm - N/A   Clear
7:54 AM 52.0 °F 48.0 °F 86% 29.95 in 9.0 mi Calm Calm - N/A   Clear
8:54 AM 55.9 °F 48.9 °F 77% 29.96 in 6.0 mi Calm Calm - N/A   Haze
9:54 AM 63.0 °F 45.0 °F 52% 29.97 in 10.0 mi Calm Calm - N/A   Clear
10:54 AM 69.1 °F 46.0 °F 44% 29.96 in 10.0 mi Calm Calm - N/A   Clear
11:54 AM 73.9 °F 44.1 °F 34% 29.95 in 10.0 mi SSW 10.4 mph - N/A   Clear
12:54 PM 77.0 °F 43.0 °F 30% 29.93 in 10.0 mi SW 10.4 mph - N/A   Clear
1:54 PM 77.0 °F 41.0 °F 28% 29.91 in 10.0 mi SW 11.5 mph - N/A   Clear
2:54 PM 77.0 °F 44.6 °F 32% 29.90 in 10.0 mi SSW 9.2 mph - N/A   Clear
3:54 PM 77.0 °F 44.1 °F 31% 29.88 in 10.0 mi South 11.5 mph 19.6 mph N/A   Clear
4:54 PM 77.0 °F 43.0 °F 30% 29.88 in 10.0 mi SW 10.4 mph 18.4 mph N/A   Clear
5:54 PM 75.0 °F 43.0 °F 32% 29.89 in 10.0 mi South 9.2 mph 18.4 mph N/A   Clear
6:54 PM 71.1 °F 45.0 °F 39% 29.90 in 10.0 mi South 8.1 mph - N/A   Clear
7:54 PM 70.0 °F 46.0 °F 42% 29.91 in 10.0 mi South 8.1 mph - N/A   Clear
8:54 PM 70.0 °F 46.0 °F 42% 29.92 in 10.0 mi South 10.4 mph - N/A   Clear
9:54 PM 68.0 °F 46.9 °F 47% 29.92 in 10.0 mi South 11.5 mph - N/A   Clear
10:54 PM 66.9 °F 48.0 °F 51% 29.94 in 10.0 mi South 6.9 mph - N/A   Clear
11:54 PM 66.9 °F 48.9 °F 52% 29.95 in 10.0 mi SSW 9.2 mph - N/A   Clear